FW5426 Weather Reports


Display with metric or nautical units.
time (UTC)temp
F
wind
direction
speed
MPH
gust
MPH
rain 1hr
in
rain 24hr
in
rain mn
in
humidity
%
barometer
mb
20260906120503 78 83 0.0 0.0 0.00 0.01 0.00 54 1017.7
20260906120003 78 83 0.0 0.0 0.00 0.01 0.00 53 1017.7
20260906115503 78 83 0.0 0.0 0.00 0.01 0.00 53 1017.6
20260906115452 79 83 0.0 0.0 0.00 0.01 0.00 52 1017.6
20260906114501 79 83 0.0 0.0 0.00 0.01 0.00 51 1017.6
20260906114002 79 83 0.0 1.0 0.00 0.01 0.00 51 1017.4
20260906113502 79 92 0.0 2.0 0.00 0.01 0.00 51 1017.6
20260906113001 79 109 1.0 3.0 0.00 0.01 0.00 50 1017.6
20260906112457 79 120 1.0 3.0 0.00 0.01 0.00 50 1017.4
20260906111951 79 124 2.0 4.0 0.00 0.01 0.00 50 1017.4
20260906111445 79 118 2.0 4.0 0.00 0.01 0.00 50 1017.4
20260906110939 79 118 1.0 4.0 0.00 0.01 0.00 50 1017.4
20260906110435 79 137 0.0 2.0 0.00 0.01 0.00 50 1017.4
20260906105935 80 155 0.0 0.0 0.00 0.01 0.00 50 1017.4
20260906105436 80 138 0.0 0.0 0.00 0.01 0.00 51 1017.4
20260906104933 80 138 0.0 4.0 0.00 0.01 0.00 50 1017.4
20260906104431 80 138 2.0 5.0 0.00 0.01 0.00 48 1017.4
20260906103931 80 146 2.0 5.0 0.00 0.01 0.00 48 1017.3
20260906103431 81 132 2.0 4.0 0.00 0.01 0.00 48 1017.3
20260906103152 81 158 1.0 4.0 0.00 0.01 0.00 48 1017.4
20260906102652 81 156 1.0 4.0 0.00 0.01 0.00 48 1017.3
20260906101931 81 191 2.0 4.0 0.00 0.01 0.00 47 1017.3
20260906101431 81 192 2.0 4.0 0.00 0.01 0.00 47 1017.2
20260906101418 81 185 2.0 5.0 0.00 0.01 0.00 47 1017.3
20260906100431 81 171 1.0 5.0 0.00 0.01 0.00 47 1017.3
20260906095930 81 173 1.0 4.0 0.00 0.01 0.00 47 1017.3
20260906095430 81 177 1.0 4.0 0.00 0.01 0.00 47 1017.2
20260906094930 81 142 2.0 5.0 0.00 0.01 0.00 47 1017.2
20260906094430 82 151 2.0 5.0 0.00 0.01 0.00 47 1017.2
20260906094147 82 155 2.0 5.0 0.00 0.01 0.00 46 1017.2
20260906093429 82 122 2.0 4.0 0.00 0.01 0.00 46 1017.2
20260906092930 82 134 2.0 4.0 0.00 0.01 0.00 46 1017.1
20260906092430 82 131 2.0 4.0 0.00 0.01 0.00 46 1017.2
20260906092200 82 140 2.0 5.0 0.00 0.01 0.00 46 1017.2
20260906091429 82 171 3.0 6.0 0.00 0.01 0.00 46 1017.2
20260906090929 82 155 3.0 6.0 0.00 0.01 0.00 46 1017.2
20260906090919 83 168 3.0 7.0 0.00 0.01 0.00 46 1017.1
20260906085930 83 184 3.0 7.0 0.00 0.01 0.00 45 1017.2
20260906085430 83 221 3.0 6.0 0.00 0.01 0.00 45 1017.1
20260906084930 83 233 3.0 6.0 0.00 0.01 0.00 45 1017.1
20260906084428 83 157 4.0 9.0 0.00 0.01 0.00 45 1017.2
20260906083930 83 151 4.0 10.0 0.00 0.01 0.00 45 1017.2
20260906083430 83 159 4.0 10.0 0.00 0.01 0.00 44 1017.2
20260906082929 83 151 4.0 8.0 0.00 0.01 0.00 44 1017.2
20260906082429 83 143 4.0 8.0 0.00 0.01 0.00 44 1017.3
20260906081929 83 171 4.0 9.0 0.00 0.01 0.00 44 1017.2
20260906081430 83 140 5.0 9.0 0.00 0.01 0.00 44 1017.2
20260906081153 83 146 5.0 9.0 0.00 0.01 0.00 44 1017.3
20260906080430 83 197 5.0 8.0 0.00 0.01 0.00 44 1017.4
20260906075930 84 177 4.0 8.0 0.00 0.01 0.00 43 1017.4
20260906075429 84 185 4.0 7.0 0.00 0.01 0.00 44 1017.3
20260906074930 84 173 4.0 6.0 0.00 0.01 0.00 44 1017.3
20260906074429 84 211 4.0 7.0 0.00 0.01 0.00 44 1017.6
20260906073929 84 229 5.0 9.0 0.00 0.01 0.00 44 1017.4
20260906073429 84 235 5.0 9.0 0.00 0.01 0.00 44 1017.4
20260906072929 84 227 4.0 9.0 0.00 0.01 0.00 44 1017.6
20260906072430 84 223 4.0 9.0 0.00 0.01 0.00 43 1017.6
20260906071929 84 226 4.0 9.0 0.00 0.01 0.00 43 1017.6
20260906071430 84 235 4.0 7.0 0.00 0.01 0.00 43 1017.6
20260906070929 84 219 4.0 7.0 0.00 0.01 0.00 43 1017.4
20260906070429 84 173 4.0 8.0 0.00 0.01 0.00 43 1017.6
20260906065930 84 226 4.0 8.0 0.00 0.01 0.00 43 1017.4
20260906065429 84 197 5.0 8.0 0.00 0.01 0.00 43 1017.4
20260906064929 84 230 4.0 8.0 0.00 0.01 0.00 43 1017.6
20260906064429 84 186 4.0 8.0 0.00 0.01 0.00 43 1017.4
20260906063930 84 210 5.0 8.0 0.00 0.01 0.00 42 1017.6
20260906063430 85 202 5.0 9.0 0.00 0.01 0.00 42 1017.6
20260906062929 85 155 5.0 9.0 0.00 0.01 0.00 42 1017.4
20260906062429 85 185 4.0 8.0 0.00 0.01 0.00 42 1017.6
20260906061929 85 194 5.0 9.0 0.00 0.01 0.00 42 1017.6
20260906061639 85 218 5.0 9.0 0.00 0.01 0.00 41 1017.7
20260906061627 85 194 5.0 9.0 0.00 0.01 0.00 41 1017.7
20260906060429 85 181 4.0 9.0 0.00 0.01 0.00 41 1017.7
20260906060152 85 187 4.0 8.0 0.00 0.01 0.01 41 1017.6
20260906055429 85 171 5.0 10.0 0.00 0.01 0.01 41 1017.6
20260906054930 86 125 5.0 10.0 0.00 0.01 0.01 41 1017.6
20260906054429 85 163 5.0 9.0 0.00 0.01 0.01 41 1017.6
20260906053929 85 150 5.0 9.0 0.00 0.01 0.01 41 1017.6
20260906053430 86 156 4.0 9.0 0.00 0.01 0.01 40 1017.7
20260906053148 86 146 4.0 7.0 0.00 0.01 0.01 40 1017.7
20260906052429 86 132 4.0 7.0 0.00 0.01 0.01 40 1017.7
20260906051930 86 136 4.0 9.0 0.00 0.01 0.01 40 1017.7
20260906051428 86 106 4.0 9.0 0.00 0.01 0.01 39 1017.7
20260906050925 86 135 3.0 7.0 0.00 0.01 0.01 39 1017.6
20260906050419 86 146 2.0 7.0 0.00 0.01 0.01 39 1017.7
20260906050138 86 135 3.0 7.0 0.00 0.01 0.01 40 1017.6
20260906045643 86 144 2.0 6.0 0.00 0.01 0.01 40 1017.6
20260906044918 86 146 0.0 4.0 0.00 0.01 0.01 40 1017.4
20260906044418 86 191 0.0 0.0 0.00 0.01 0.01 41 1017.4
20260906043915 86 211 0.0 1.0 0.00 0.01 0.01 40 1017.3
20260906043414 86 211 1.0 4.0 0.00 0.01 0.01 40 1017.4
20260906042913 86 193 1.0 4.0 0.00 0.01 0.01 39 1017.6
20260906042414 86 226 1.0 3.0 0.00 0.01 0.01 40 1017.4
20260906041911 86 224 2.0 3.0 0.00 0.01 0.01 39 1017.3
20260906041409 86 210 3.0 5.0 0.00 0.01 0.01 39 1017.4
20260906040910 86 196 3.0 5.0 0.00 0.01 0.01 39 1017.4
20260906040410 86 190 3.0 6.0 0.00 0.01 0.01 39 1017.4
20260906035907 86 188 3.0 6.0 0.00 0.01 0.01 39 1017.4
20260906035410 86 203 4.0 8.0 0.00 0.01 0.01 39 1017.3
20260906034908 86 187 4.0 8.0 0.00 0.01 0.01 39 1017.3
20260906034405 86 182 4.0 7.0 0.00 0.01 0.01 39 1017.2
20260906033905 86 170 3.0 7.0 0.00 0.01 0.01 39 1017.2
20260906033610 86 155 3.0 7.0 0.00 0.01 0.01 39 1017.3
20260906033557 86 177 3.0 7.0 0.00 0.01 0.01 39 1017.2
20260906032401 86 180 3.0 7.0 0.00 0.01 0.01 40 1017.3
20260906031854 85 165 3.0 7.0 0.00 0.01 0.01 40 1017.2
20260906031349 85 134 1.0 4.0 0.00 0.01 0.01 42 1017.2
20260906031105 85 120 1.0 3.0 0.00 0.01 0.01 41 1017.1
20260906030336 85 148 1.0 2.0 0.00 0.01 0.01 43 1017.0
20260906025831 85 73 1.0 4.0 0.00 0.01 0.01 43 1017.0
20260906025331 85 59 1.0 4.0 0.00 0.01 0.01 41 1016.9
20260906024831 86 60 1.0 4.0 0.00 0.01 0.01 41 1016.9
20260906024332 86 60 1.0 4.0 0.00 0.01 0.01 41 1017.0
20260906023831 86 77 2.0 4.0 0.00 0.01 0.01 41 1017.0
20260906023331 86 69 1.0 3.0 0.00 0.01 0.01 40 1016.9
20260906023048 86 65 1.0 4.0 0.00 0.01 0.01 40 1016.8
20260906022331 86 32 2.0 4.0 0.00 0.01 0.01 40 1016.8
20260906021830 86 5 2.0 8.0 0.00 0.01 0.01 41 1016.8
20260906021331 87 355 3.0 8.0 0.00 0.01 0.01 41 1016.8
20260906020831 87 9 3.0 6.0 0.00 0.01 0.01 41 1016.7
20260906020331 87 50 3.0 8.0 0.00 0.01 0.01 40 1016.4
20260906015831 87 53 3.0 8.0 0.00 0.01 0.01 40 1016.4
20260906015331 87 47 3.0 9.0 0.00 0.01 0.01 39 1016.5
20260906014830 87 0 4.0 9.0 0.00 0.01 0.01 40 1016.4
20260906014330 88 26 3.0 7.0 0.00 0.01 0.01 39 1016.5
20260906013829 88 51 2.0 6.0 0.00 0.01 0.01 38 1016.2
20260906013547 89 350 1.0 4.0 0.00 0.01 0.01 34 1016.2
20260906012829 89 344 2.0 4.0 0.00 0.01 0.01 34 1016.1
20260906012329 89 310 2.0 7.0 0.00 0.01 0.01 34 1015.9
20260906011829 89 268 3.0 7.0 0.00 0.01 0.01 34 1015.9
20260906011329 88 161 4.0 10.0 0.00 0.01 0.01 35 1015.8
20260906011057 88 227 7.0 14.0 0.00 0.01 0.01 35 1015.8
20260906010331 89 282 8.0 14.0 0.00 0.01 0.01 35 1015.8
20260906005827 89 274 9.0 18.0 0.00 0.01 0.01 35 1015.8
20260906005326 89 260 10.0 18.0 0.00 0.01 0.01 35 1015.9
20260906004827 89 247 8.0 18.0 0.00 0.01 0.01 35 1015.8
20260906004326 89 235 7.0 15.0 0.00 0.01 0.01 33 1015.8
20260906003827 89 278 7.0 15.0 0.00 0.01 0.01 34 1015.8
20260906003327 89 254 9.0 19.0 0.00 0.01 0.01 37 1015.9
20260906002827 89 282 9.0 19.0 0.00 0.01 0.01 37 1016.0
20260906002327 90 287 5.0 17.0 0.01 0.01 0.01 37 1015.8
20260906001827 89 237 3.0 8.0 0.01 0.01 0.01 37 1015.9
20260906001326 89 338 4.0 10.0 0.01 0.01 0.01 37 1015.9
20260906001315 89 329 6.0 12.0 0.01 0.01 0.01 35 1015.9
20260906000327 88 346 6.0 12.0 0.01 0.01 0.01 36 1015.8
20260905235824 86 0 6.0 11.0 0.01 0.01 0.01 40 1015.6
20260905235325 86 15 8.0 17.0 0.01 0.01 0.01 43 1015.9
20260905234825 85 9 9.0 17.0 0.01 0.01 0.01 43 1015.8
20260905234322 85 20 9.0 15.0 0.01 0.01 0.01 45 1015.6
20260905233835 85 66 9.0 14.0 0.01 0.01 0.01 48 1015.6
20260905233323 84 46 11.0 21.0 0.01 0.01 0.01 48 1015.8
20260905233300 84 30 14.0 24.0 0.01 0.01 0.01 46 1015.6
20260905232323 86 16 12.0 24.0 0.00 0.00 0.00 46 1015.6
20260905232046 92 71 6.0 18.0 0.00 0.00 0.00 41 1015.5
20260905231315 93 5 3.0 12.0 0.00 0.00 0.00 31 1015.4
20260905230807 94 47 3.0 8.0 0.00 0.00 0.00 30 1015.5
20260905230307 93 161 4.0 8.0 0.00 0.00 0.00 30 1015.4
20260905230031 94 95 3.0 8.0 0.00 0.00 0.00 29 1015.5
20260905225306 94 46 3.0 8.0 0.00 0.00 0.00 29 1015.4
20260905224806 95 74 4.0 8.0 0.00 0.00 0.00 29 1015.5
20260905224752 95 71 3.0 6.0 0.00 0.00 0.00 29 1015.5
20260905223807 95 76 3.0 8.0 0.00 0.00 0.00 29 1015.5
20260905223306 94 17 2.0 8.0 0.00 0.00 0.00 29 1015.6
20260905222806 94 286 4.0 9.0 0.00 0.00 0.00 29 1015.8
20260905222758 95 316 5.0 10.0 0.00 0.00 0.00 29 1015.8
20260905221806 95 317 3.0 10.0 0.00 0.00 0.00 29 1015.8
20260905221528 96 355 2.0 6.0 0.00 0.00 0.00 28 1015.9
20260905220805 96 238 3.0 8.0 0.00 0.00 0.00 29 1015.9
20260905220526 95 322 5.0 11.0 0.00 0.00 0.00 29 1016.0
20260905215803 95 330 5.0 11.0 0.00 0.00 0.00 29 1016.0
20260905215522 95 259 3.0 9.0 0.00 0.00 0.00 29 1016.0
20260905214804 94 279 2.0 9.0 0.00 0.00 0.00 30 1016.0
20260905214515 94 161 3.0 11.0 0.00 0.00 0.00 30 1016.1
20260905213752 94 5 5.0 11.0 0.00 0.00 0.00 30 1016.3
20260905213244 95 33 4.0 11.0 0.00 0.00 0.00 29 1016.3
20260905212738 94 335 4.0 9.0 0.00 0.00 0.00 30 1016.3
20260905212232 94 316 4.0 9.0 0.00 0.00 0.00 30 1016.3
20260905211730 94 334 6.0 10.0 0.00 0.00 0.00 30 1016.4
20260905211230 94 220 7.0 13.0 0.00 0.00 0.00 30 1016.5
20260905210731 94 205 7.0 13.0 0.00 0.00 0.00 29 1016.7
20260905210233 95 279 6.0 14.0 0.00 0.00 0.00 29 1016.8
20260905205730 95 266 8.0 14.0 0.00 0.00 0.00 30 1016.8
20260905205230 94 254 7.0 13.0 0.00 0.00 0.00 30 1017.0
20260905204729 94 216 6.0 12.0 0.00 0.00 0.00 31 1017.1
20260905204452 94 275 6.0 12.0 0.00 0.00 0.00 32 1017.0
20260905203729 93 197 4.0 11.0 0.00 0.00 0.00 32 1017.2
20260905203231 92 259 3.0 7.0 0.00 0.00 0.00 33 1017.2
20260905202731 91 63 3.0 6.0 0.00 0.00 0.00 34 1017.2
20260905202456 92 9 3.0 7.0 0.00 0.00 0.00 34 1017.3
20260905201730 92 295 3.0 7.0 0.00 0.00 0.00 34 1017.6
20260905201231 91 167 3.0 6.0 0.00 0.00 0.00 35 1017.6
20260905200729 91 205 3.0 7.0 0.00 0.00 0.00 35 1017.6
20260905200453 91 209 4.0 10.0 0.00 0.00 0.00 35 1017.9
20260905195730 92 285 4.0 10.0 0.00 0.00 0.00 34 1017.9
20260905195226 92 351 4.0 9.0 0.00 0.00 0.00 34 1018.0
20260905194720 92 330 3.0 8.0 0.00 0.00 0.00 35 1018.1
20260905194220 91 24 4.0 8.0 0.00 0.00 0.00 35 1018.2
20260905193940 91 46 5.0 10.0 0.00 0.00 0.00 35 1018.2
20260905193220 91 19 5.0 10.0 0.00 0.00 0.00 36 1018.3
20260905192718 92 286 3.0 9.0 0.00 0.00 0.00 35 1018.4
20260905192219 92 286 3.0 7.0 0.00 0.00 0.00 33 1018.7
20260905191718 92 227 2.0 7.0 0.00 0.00 0.00 34 1018.6
20260905191437 92 203 3.0 11.0 0.00 0.00 0.00 34 1018.6
20260905190938 92 307 4.0 11.0 0.00 0.00 0.00 34 1018.7
20260905190439 91 162 3.0 10.0 0.00 0.00 0.00 35 1018.8
20260905185941 91 188 2.0 10.0 0.00 0.00 0.00 35 1018.9
20260905185216 90 211 2.0 8.0 0.00 0.00 0.00 36 1019.0
20260905184716 90 197 3.0 8.0 0.00 0.00 0.00 36 1019.1
20260905184216 90 222 3.0 8.0 0.00 0.00 0.00 36 1019.2
20260905183717 90 146 5.0 10.0 0.00 0.00 0.00 36 1019.5
20260905183216 90 188 5.0 11.0 0.00 0.00 0.00 36 1019.5
20260905183156 89 171 4.0 11.0 0.00 0.00 0.00 38 1019.6
20260905182216 89 213 4.0 9.0 0.00 0.00 0.00 37 1019.6
20260905181936 89 153 4.0 10.0 0.00 0.00 0.00 37 1019.7
20260905181210 89 95 4.0 10.0 0.00 0.00 0.00 37 1019.8
20260905180924 89 76 5.0 12.0 0.00 0.00 0.00 38 1019.8
20260905180206 89 42 4.0 12.0 0.00 0.00 0.00 38 1019.8
20260905175706 89 152 3.0 8.0 0.00 0.00 0.00 38 1019.9
20260905175206 89 238 4.0 12.0 0.00 0.00 0.00 39 1019.9
20260905174704 89 215 4.0 12.0 0.00 0.00 0.00 38 1019.9
20260905174204 89 148 4.0 10.0 0.00 0.00 0.00 38 1020.0
20260905173704 89 160 3.0 7.0 0.00 0.00 0.00 38 1020.0
20260905173202 89 30 3.0 8.0 0.00 0.00 0.00 39 1020.1
20260905172702 88 95 2.0 8.0 0.00 0.00 0.00 39 1020.2
20260905172202 88 99 2.0 4.0 0.00 0.00 0.00 39 1020.1
20260905171702 87 54 3.0 8.0 0.00 0.00 0.00 40 1020.4
20260905171203 87 342 3.0 8.0 0.00 0.00 0.00 41 1020.4
20260905170702 87 76 3.0 8.0 0.00 0.00 0.00 41 1020.2
20260905170202 87 230 3.0 7.0 0.00 0.00 0.00 41 1020.2
20260905165702 87 105 3.0 7.0 0.00 0.00 0.00 42 1020.4
20260905165202 87 12 2.0 7.0 0.00 0.00 0.00 41 1020.1
20260905164702 87 37 4.0 9.0 0.00 0.00 0.00 42 1020.2
20260905164201 86 117 5.0 9.0 0.00 0.00 0.00 42 1020.4
20260905163702 86 148 4.0 9.0 0.00 0.00 0.00 42 1020.2
20260905163202 85 103 3.0 7.0 0.00 0.00 0.00 43 1020.4
20260905162702 85 10 4.0 8.0 0.00 0.00 0.00 44 1020.2
20260905162422 85 82 4.0 9.0 0.00 0.00 0.00 43 1020.4
20260905161703 85 76 3.0 9.0 0.00 0.00 0.00 43 1020.4
20260905161202 85 137 2.0 6.0 0.00 0.00 0.00 44 1020.2
20260905160702 85 120 2.0 7.0 0.00 0.00 0.00 44 1020.2
20260905160644 84 132 3.0 7.0 0.00 0.00 0.00 45 1020.2
20260905155702 84 97 2.0 6.0 0.00 0.00 0.00 45 1020.1
20260905155202 84 220 2.0 6.0 0.00 0.00 0.00 45 1020.2
20260905154701 84 73 2.0 6.0 0.00 0.00 0.00 46 1020.2
20260905154201 84 80 2.0 6.0 0.00 0.00 0.00 45 1020.4
20260905153703 84 57 3.0 7.0 0.00 0.00 0.00 46 1020.2
20260905153419 84 77 3.0 7.0 0.00 0.00 0.00 46 1020.2
20260905152701 84 146 2.0 7.0 0.00 0.00 0.00 46 1020.2
20260905152201 84 181 3.0 8.0 0.00 0.00 0.00 46 1020.4
20260905151701 84 128 3.0 8.0 0.00 0.00 0.00 45 1020.2
20260905151201 84 146 2.0 8.0 0.00 0.00 0.00 45 1020.4
20260905150702 84 128 1.0 4.0 0.00 0.00 0.00 45 1020.2
20260905150202 84 113 1.0 4.0 0.00 0.00 0.00 46 1020.2
20260905145701 83 133 0.0 2.0 0.00 0.00 0.00 47 1020.1
20260905145645 82 16 0.0 2.0 0.00 0.00 0.00 48 1020.1
20260905144926 82 17 1.0 3.0 0.00 0.00 0.00 49 1020.1
20260905144202 81 347 1.0 3.0 0.00 0.00 0.00 50 1020.1
20260905143701 81 350 1.0 3.0 0.00 0.00 0.00 50 1020.0
20260905143201 80 88 3.0 6.0 0.00 0.00 0.00 51 1020.1
20260905142658 80 113 3.0 6.0 0.00 0.00 0.00 52 1020.1
20260905142153 79 95 3.0 5.0 0.00 0.00 0.00 53 1020.0
20260905141648 79 51 3.0 6.0 0.00 0.00 0.00 54 1020.0
20260905141143 78 14 3.0 6.0 0.00 0.00 0.00 55 1020.0
20260905140644 78 40 2.0 4.0 0.00 0.00 0.00 56 1019.9
20260905140139 77 56 1.0 3.0 0.00 0.00 0.00 58 1019.9
20260905135639 76 57 1.0 3.0 0.00 0.00 0.00 59 1019.9
20260905135148 75 57 0.0 3.0 0.00 0.00 0.00 60 1019.8
20260905134643 75 96 0.0 1.0 0.00 0.00 0.00 62 1019.9
20260905134213 74 34 1.0 4.0 0.00 0.00 0.00 63 1019.7
20260905134139 74 34 0.0 0.0 0.00 0.00 0.00 62 1019.8
20260905133146 74 23 1.0 4.0 0.00 0.00 0.00 63 1019.6
20260905132735 74 118 3.0 8.0 0.00 0.00 0.00 63 1019.5
20260905132718 74 141 5.0 9.0 0.00 0.00 0.00 63 1019.3
20260905132645 74 42 1.0 6.0 0.00 0.00 0.00 63 1019.5
20260905131137 74 134 6.0 10.0 0.00 0.00 0.00 63 1019.2
20260905130911 75 123 6.0 10.0 0.00 0.00 0.00 62 1019.2
20260905130133 75 116 5.0 9.0 0.00 0.00 0.00 61 1019.1
20260905125645 76 95 4.0 7.0 0.00 0.00 0.00 60 1019.0
20260905125134 76 113 4.0 8.0 0.00 0.00 0.00 59 1018.9
20260905124909 76 144 4.0 8.0 0.00 0.00 0.00 58 1018.9
20260905124139 76 124 4.0 8.0 0.00 0.00 0.00 57 1018.9
20260905123640 76 115 4.0 7.0 0.00 0.00 0.00 58 1018.8
20260905123131 76 112 2.0 7.0 0.00 0.00 0.00 58 1018.6
20260905122630 76 124 1.0 3.0 0.00 0.00 0.00 58 1018.6
20260905122130 76 137 0.0 2.0 0.00 0.00 0.00 58 1018.4
20260905121644 76 215 0.0 3.0 0.00 0.00 0.00 57 1018.6
20260905121141 76 215 0.0 3.0 0.00 0.00 0.00 57 1018.4
20260905120636 77 25 1.0 3.0 0.00 0.00 0.00 56 1018.4